QPF
0.00 0.00 0.00 0.00 0.01 0.02 0.02 0.01 0.03 0.03 0.03 0.03 0.02 0.01 0.01 0.01 0.01 0.01 0.02 0.02 0.02 0.02 0.02 0.03 0.03 0.02 0.02 0.01 0.01 0.01 0.01 0.01 0.02 0.02 0.02 0.02 0.02 0.02 0.02 0.02 0.02 0.02 0.02 0.02
0.01 0.00 0.00 0.01 0.01 0.02 0.02 0.02 0.03 0.04 0.04 0.03 0.02 0.01 0.01 0.01 0.01 0.01 0.02 0.02 0.02 0.02 0.02 0.02 0.02 0.01 0.01 0.01 0.01 0.01 0.00 0.01 0.01 0.01 0.01 0.01 0.01 0.01 0.02 0.02 0.03 0.03 0.03 0.03
0.01 0.01 0.01 0.03 0.02 0.02 0.02 0.03 0.03 0.04 0.04 0.03 0.02 0.01 0.02 0.01 0.01 0.01 0.02 0.02 0.02 0.02 0.01 0.01 0.01 0.01 0.01 0.01 0.01 0.01 0.01 0.01 0.00 0.00 0.00 0.01 0.01 0.02 0.02 0.03 0.04 0.05 0.06 0.06
0.02 0.01 0.02 0.02 0.01 0.01 0.03 0.03 0.03 0.03 0.03 0.03 0.02 0.02 0.02 0.01 0.01 0.01 0.02 0.02 0.02 0.02 0.01 0.01 0.01 0.01 0.01 0.01 0.01 0.01 0.02 0.01 0.01 0.00 0.00 0.00 0.01 0.01 0.02 0.03 0.02 0.02 0.03 0.03
0.03 0.03 0.02 0.02 0.01 0.01 0.03 0.03 0.02 0.03 0.03 0.04 0.04 0.03 0.03 0.02 0.01 0.01 0.02 0.03 0.04 0.02 0.01 0.01 0.01 0.01 0.01 0.01 0.01 0.02 0.02 0.02 0.01 0.01 0.00 0.01 0.01 0.01 0.02 0.02 0.02 0.02 0.02 0.02
0.04 0.04 0.03 0.02 0.01 0.01 0.03 0.04 0.01 0.01 0.02 0.02 0.03 0.04 0.04 0.04 0.03 0.02 0.03 0.04 0.04 0.03 0.02 0.02 0.01 0.01 0.01 0.01 0.01 0.01 0.02 0.02 0.01 0.01 0.01 0.02 0.02 0.02 0.02 0.01 0.02 0.02 0.02 0.02
0.03 0.04 0.02 0.01 0.01 0.01 0.04 0.04 0.02 0.01 0.02 0.03 0.04 0.05 0.05 0.04 0.04 0.04 0.04 0.05 0.05 0.04 0.03 0.02 0.02 0.01 0.01 0.01 0.01 0.01 0.01 0.01 0.01 0.02 0.02 0.03 0.03 0.02 0.02 0.02 0.02 0.02 0.03 0.03
0.03 0.04 0.03 0.01 0.01 0.03 0.04 0.03 0.02 0.02 0.03 0.03 0.03 0.04 0.03 0.02 0.02 0.03 0.03 0.03 0.03 0.03 0.03 0.02 0.01 0.01 0.01 0.01 0.01 0.01 0.01 0.01 0.02 0.02 0.03 0.03 0.03 0.02 0.02 0.02 0.02 0.02 0.02 0.03
0.03 0.03 0.03 0.02 0.03 0.04 0.04 0.04 0.03 0.03 0.03 0.03 0.03 0.02 0.02 0.02 0.02 0.02 0.02 0.02 0.02 0.03 0.03 0.03 0.02 0.01 0.01 0.01 0.01 0.01 0.01 0.02 0.02 0.03 0.03 0.03 0.03 0.02 0.02 0.02 0.02 0.02 0.03 0.04
0.04 0.03 0.02 0.02 0.03 0.04 0.05 0.05 0.04 0.04 0.03 0.03 0.03 0.03 0.03 0.03 0.02 0.01 0.02 0.01 0.02 0.02 0.03 0.04 0.03 0.02 0.02 0.02 0.02 0.03 0.03 0.03 0.04 0.04 0.04 0.04 0.03 0.03 0.03 0.03 0.03 0.03 0.04 0.04
0.05 0.05 0.04 0.03 0.03 0.04 0.04 0.04 0.04 0.04 0.03 0.03 0.03 0.03 0.02 0.02 0.01 0.01 0.01 0.01 0.02 0.03 0.03 0.04 0.04 0.03 0.02 0.02 0.03 0.03 0.03 0.03 0.02 0.02 0.01 0.01 0.01 0.02 0.02 0.02 0.03 0.04 0.04 0.05
0.05 0.04 0.04 0.04 0.04 0.03 0.04 0.04 0.03 0.02 0.02 0.02 0.02 0.02 0.01 0.01 0.01 0.01 0.01 0.01 0.01 0.02 0.03 0.03 0.03 0.03 0.02 0.01 0.01 0.02 0.01 0.01 0.01 0.01 0.01 0.00 0.00 0.00 0.00 0.00 0.01 0.02 0.03 0.04
0.03 0.03 0.02 0.03 0.04 0.04 0.03 0.03 0.02 0.02 0.02 0.02 0.01 0.01 0.01 0.01 0.01 0.01 0.01 0.01 0.01 0.01 0.02 0.02 0.03 0.03 0.02 0.02 0.01 0.02 0.02 0.01 0.01 0.01 0.01 0.01 0.00 0.00 0.00 0.01 0.01 0.02 0.03 0.03
0.01 0.01 0.02 0.03 0.05 0.06 0.06 0.04 0.04 0.04 0.04 0.03 0.02 0.01 0.01 0.01 0.01 0.01 0.01 0.01 0.00 0.00 0.01 0.01 0.02 0.03 0.03 0.02 0.02 0.03 0.03 0.02 0.02 0.01 0.01 0.01 0.01 0.01 0.01 0.01 0.02 0.03 0.03 0.02
0.02 0.02 0.03 0.05 0.06 0.06 0.06 0.06 0.06 0.06 0.06 0.04 0.03 0.03 0.02 0.02 0.02 0.02 0.01 0.01 0.01 0.01 0.01 0.01 0.01 0.02 0.02 0.02 0.02 0.03 0.03 0.02 0.02 0.01 0.01 0.01 0.01 0.02 0.02 0.02 0.03 0.04 0.03 0.03
0.02 0.02 0.02 0.04 0.07 0.06 0.04 0.04 0.05 0.06 0.06 0.06 0.05 0.04 0.03 0.02 0.02 0.01 0.01 0.01 0.01 0.01 0.01 0.01 0.01 0.01 0.01 0.01 0.02 0.02 0.02 0.02 0.02 0.01 0.01 0.01 0.01 0.02 0.03 0.03 0.04 0.05 0.04 0.04
0.02 0.02 0.03 0.04 0.06 0.05 0.03 0.03 0.04 0.05 0.05 0.04 0.04 0.03 0.03 0.02 0.01 0.01 0.01 0.01 0.01 0.01 0.02 0.01 0.01 0.01 0.01 0.01 0.01 0.02 0.02 0.02 0.03 0.02 0.01 0.02 0.03 0.04 0.05 0.05 0.06 0.07 0.07 0.07
0.02 0.02 0.04 0.05 0.06 0.06 0.04 0.03 0.04 0.06 0.06 0.06 0.04 0.04 0.03 0.03 0.03 0.02 0.01 0.01 0.01 0.02 0.03 0.02 0.01 0.01 0.02 0.01 0.01 0.02 0.02 0.03 0.03 0.03 0.03 0.03 0.04 0.05 0.06 0.07 0.08 0.08 0.07 0.08
0.01 0.01 0.03 0.04 0.04 0.05 0.04 0.03 0.03 0.04 0.04 0.04 0.03 0.03 0.03 0.03 0.03 0.02 0.02 0.01 0.02 0.03 0.03 0.02 0.02 0.02 0.02 0.01 0.01 0.01 0.02 0.02 0.02 0.03 0.04 0.04 0.04 0.05 0.06 0.07 0.07 0.08 0.08 0.08
0.00 0.01 0.03 0.03 0.02 0.03 0.03 0.03 0.02 0.02 0.02 0.02 0.02 0.02 0.02 0.02 0.02 0.02 0.02 0.02 0.02 0.02 0.03 0.03 0.03 0.02 0.03 0.02 0.02 0.01 0.01 0.01 0.02 0.03 0.05 0.05 0.05 0.06 0.06 0.07 0.07 0.07 0.07 0.06
0.01 0.01 0.02 0.02 0.02 0.02 0.02 0.02 0.02 0.02 0.02 0.02 0.01 0.01 0.02 0.02 0.03 0.03 0.03 0.03 0.02 0.01 0.02 0.02 0.03 0.03 0.04 0.03 0.02 0.01 0.01 0.02 0.02 0.02 0.03 0.04 0.04 0.04 0.04 0.05 0.05 0.05 0.05 0.05
0.03 0.03 0.03 0.03 0.03 0.03 0.02 0.01 0.01 0.01 0.02 0.02 0.02 0.01 0.02 0.03 0.04 0.04 0.04 0.04 0.03 0.02 0.01 0.02 0.03 0.03 0.04 0.03 0.01 0.01 0.01 0.01 0.01 0.01 0.02 0.02 0.03 0.03 0.03 0.03 0.04 0.04 0.04 0.04
0.03 0.02 0.03 0.03 0.03 0.02 0.01 0.01 0.01 0.01 0.03 0.03 0.02 0.02 0.02 0.02 0.03 0.03 0.04 0.04 0.03 0.02 0.01 0.01 0.02 0.03 0.03 0.02 0.02 0.01 0.01 0.01 0.01 0.01 0.01 0.02 0.02 0.03 0.03 0.04 0.05 0.05 0.04 0.04
0.01 0.01 0.01 0.02 0.02 0.02 0.02 0.01 0.01 0.01 0.02 0.03 0.02 0.02 0.02 0.02 0.03 0.03 0.03 0.04 0.04 0.03 0.02 0.02 0.02 0.02 0.01 0.01 0.02 0.02 0.02 0.02 0.01 0.01 0.01 0.01 0.02 0.03 0.03 0.04 0.05 0.05 0.04 0.04
0.01 0.01 0.02 0.02 0.03 0.03 0.02 0.01 0.01 0.01 0.02 0.03 0.03 0.03 0.02 0.02 0.03 0.03 0.03 0.02 0.03 0.03 0.03 0.03 0.02 0.02 0.01 0.01 0.01 0.02 0.02 0.02 0.02 0.02 0.02 0.02 0.02 0.03 0.04 0.04 0.04 0.04 0.05 0.05
0.01 0.02 0.02 0.03 0.03 0.03 0.02 0.02 0.02 0.01 0.02 0.02 0.02 0.02 0.02 0.02 0.02 0.02 0.02 0.02 0.02 0.02 0.02 0.03 0.03 0.02 0.02 0.01 0.01 0.01 0.01 0.02 0.03 0.03 0.03 0.03 0.03 0.03 0.04 0.05 0.05 0.04 0.05 0.06
0.01 0.02 0.02 0.03 0.04 0.03 0.02 0.02 0.02 0.02 0.02 0.03 0.03 0.02 0.02 0.02 0.01 0.02 0.02 0.02 0.02 0.02 0.02 0.03 0.04 0.03 0.02 0.02 0.01 0.01 0.01 0.02 0.02 0.02 0.02 0.02 0.02 0.03 0.04 0.05 0.06 0.06 0.06 0.07
MSLP
1013.17 1012.74 1012.28 1011.83 1011.40 1010.99 1010.60 1010.20 1009.78 1009.35 1008.90 1008.44 1008.01 1007.64 1007.37 1007.21 1007.19 1007.31 1007.55 1007.88 1008.27 1008.70 1009.13 1009.56 1009.97 1010.39 1010.83 1011.32 1011.87 1012.48 1013.17 1013.92 1014.70 1015.50 1016.26 1016.98 1017.62 1018.17 1018.64 1019.01 1019.32 1019.57 1019.79 1020.00
1013.19 1012.75 1012.26 1011.74 1011.24 1010.75 1010.28 1009.83 1009.39 1008.95 1008.52 1008.11 1007.73 1007.40 1007.15 1007.00 1006.96 1007.03 1007.21 1007.49 1007.83 1008.22 1008.65 1009.09 1009.54 1010.01 1010.51 1011.05 1011.64 1012.29 1013.00 1013.76 1014.55 1015.35 1016.14 1016.89 1017.59 1018.20 1018.74 1019.19 1019.56 1019.85 1020.10 1020.32
1013.06 1012.63 1012.13 1011.60 1011.06 1010.54 1010.03 1009.56 1009.11 1008.67 1008.26 1007.86 1007.50 1007.18 1006.92 1006.74 1006.65 1006.66 1006.78 1006.99 1007.29 1007.66 1008.08 1008.55 1009.06 1009.59 1010.16 1010.76 1011.41 1012.09 1012.82 1013.58 1014.37 1015.17 1015.97 1016.74 1017.48 1018.15 1018.75 1019.27 1019.70 1020.06 1020.34 1020.57
1012.84 1012.44 1011.96 1011.46 1010.94 1010.42 1009.93 1009.46 1009.01 1008.59 1008.18 1007.79 1007.41 1007.07 1006.77 1006.53 1006.37 1006.29 1006.33 1006.46 1006.71 1007.05 1007.48 1007.98 1008.54 1009.15 1009.79 1010.46 1011.16 1011.89 1012.63 1013.39 1014.18 1014.97 1015.76 1016.54 1017.30 1018.01 1018.66 1019.23 1019.73 1020.14 1020.47 1020.72
1012.59 1012.22 1011.80 1011.35 1010.88 1010.41 1009.96 1009.52 1009.10 1008.69 1008.29 1007.89 1007.50 1007.11 1006.75 1006.43 1006.17 1005.99 1005.92 1005.97 1006.15 1006.45 1006.87 1007.39 1008.00 1008.67 1009.39 1010.14 1010.90 1011.67 1012.44 1013.21 1013.98 1014.76 1015.54 1016.31 1017.06 1017.79 1018.47 1019.08 1019.63 1020.08 1020.44 1020.73
1012.32 1012.00 1011.63 1011.24 1010.84 1010.44 1010.04 1009.66 1009.28 1008.90 1008.51 1008.10 1007.68 1007.24 1006.81 1006.40 1006.04 1005.76 1005.58 1005.53 1005.62 1005.87 1006.26 1006.79 1007.43 1008.16 1008.95 1009.77 1010.60 1011.42 1012.22 1013.01 1013.78 1014.54 1015.30 1016.05 1016.79 1017.50 1018.19 1018.82 1019.39 1019.88 1020.28 1020.59
1012.02 1011.72 1011.40 1011.06 1010.72 1010.38 1010.04 1009.71 1009.38 1009.03 1008.65 1008.25 1007.81 1007.34 1006.85 1006.37 1005.92 1005.53 1005.25 1005.10 1005.11 1005.29 1005.65 1006.17 1006.83 1007.60 1008.45 1009.33 1010.23 1011.11 1011.96 1012.78 1013.56 1014.31 1015.04 1015.76 1016.47 1017.17 1017.84 1018.47 1019.05 1019.56 1019.99 1020.34
1011.61 1011.32 1011.01 1010.70 1010.40 1010.10 1009.80 1009.50 1009.20 1008.88 1008.53 1008.15 1007.71 1007.23 1006.72 1006.19 1005.69 1005.23 1004.87 1004.64 1004.58 1004.70 1005.01 1005.51 1006.18 1006.98 1007.88 1008.83 1009.80 1010.74 1011.65 1012.50 1013.30 1014.05 1014.76 1015.45 1016.12 1016.79 1017.43 1018.05 1018.63 1019.16 1019.62 1019.99
1011.06 1010.73 1010.40 1010.07 1009.76 1009.45 1009.16 1008.87 1008.59 1008.29 1007.97 1007.62 1007.21 1006.76 1006.27 1005.76 1005.25 1004.78 1004.39 1004.12 1004.01 1004.09 1004.37 1004.86 1005.52 1006.34 1007.27 1008.28 1009.30 1010.30 1011.26 1012.15 1012.98 1013.73 1014.44 1015.10 1015.74 1016.37 1016.99 1017.59 1018.16 1018.70 1019.18 1019.60
1010.32 1009.91 1009.50 1009.11 1008.73 1008.37 1008.03 1007.72 1007.42 1007.14 1006.85 1006.55 1006.21 1005.84 1005.43 1005.00 1004.56 1004.14 1003.78 1003.53 1003.43 1003.50 1003.77 1004.23 1004.90 1005.72 1006.67 1007.71 1008.77 1009.82 1010.82 1011.75 1012.60 1013.37 1014.07 1014.71 1015.32 1015.92 1016.51 1017.09 1017.66 1018.21 1018.72 1019.19
1009.38 1008.86 1008.33 1007.81 1007.31 1006.85 1006.42 1006.04 1005.71 1005.42 1005.17 1004.94 1004.71 1004.46 1004.20 1003.91 1003.61 1003.32 1003.08 1002.91 1002.86 1002.96 1003.24 1003.71 1004.36 1005.18 1006.13 1007.17 1008.25 1009.32 1010.35 1011.30 1012.17 1012.94 1013.63 1014.26 1014.86 1015.43 1016.00 1016.56 1017.14 1017.70 1018.25 1018.75
1008.30 1007.63 1006.94 1006.26 1005.60 1004.99 1004.43 1003.95 1003.56 1003.26 1003.04 1002.89 1002.79 1002.72 1002.65 1002.57 1002.49 1002.40 1002.33 1002.30 1002.36 1002.54 1002.86 1003.34 1003.99 1004.78 1005.71 1006.73 1007.79 1008.85 1009.86 1010.81 1011.68 1012.45 1013.13 1013.75 1014.33 1014.89 1015.45 1016.01 1016.59 1017.17 1017.75 1018.29
1007.17 1006.33 1005.48 1004.61 1003.77 1002.98 1002.27 1001.67 1001.21 1000.88 1000.70 1000.64 1000.68 1000.80 1000.96 1001.13 1001.30 1001.45 1001.61 1001.77 1001.98 1002.26 1002.64 1003.15 1003.78 1004.55 1005.42 1006.38 1007.39 1008.40 1009.38 1010.30 1011.14 1011.89 1012.57 1013.18 1013.75 1014.30 1014.85 1015.42 1016.01 1016.61 1017.21 1017.78
1006.07 1005.10 1004.08 1003.04 1002.01 1001.05 1000.18 999.46 998.91 998.55 998.39 998.41 998.59 998.90 999.29 999.71 1000.15 1000.57 1000.96 1001.34 1001.72 1002.12 1002.58 1003.11 1003.73 1004.45 1005.25 1006.13 1007.06 1007.99 1008.90 1009.76 1010.55 1011.28 1011.93 1012.53 1013.10 1013.65 1014.21 1014.79 1015.39 1016.00 1016.62 1017.21
1005.13 1004.05 1002.89 1001.70 1000.52 999.40 998.40 997.56 996.92 996.52 996.37 996.45 996.74 997.21 997.80 998.45 999.13 999.79 1000.42 1001.00 1001.55 1002.07 1002.60 1003.15 1003.76 1004.42 1005.15 1005.93 1006.75 1007.59 1008.40 1009.19 1009.93 1010.61 1011.24 1011.82 1012.39 1012.94 1013.51 1014.10 1014.71 1015.34 1015.96 1016.56
1004.42 1003.27 1002.03 1000.74 999.45 998.21 997.09 996.15 995.44 994.99 994.82 994.93 995.29 995.87 996.59 997.42 998.28 999.14 999.95 1000.70 1001.38 1002.01 1002.60 1003.18 1003.77 1004.38 1005.03 1005.72 1006.43 1007.16 1007.88 1008.58 1009.26 1009.89 1010.49 1011.06 1011.62 1012.19 1012.77 1013.37 1013.98 1014.61 1015.23 1015.82
1003.97 1002.81 1001.54 1000.21 998.86 997.56 996.37 995.36 994.58 994.07 993.87 993.96 994.33 994.94 995.73 996.63 997.60 998.57 999.50 1000.37 1001.15 1001.85 1002.49 1003.09 1003.67 1004.25 1004.83 1005.44 1006.06 1006.69 1007.33 1007.95 1008.56 1009.14 1009.71 1010.27 1010.83 1011.39 1011.98 1012.58 1013.20 1013.83 1014.44 1015.01
1003.77 1002.66 1001.43 1000.12 998.77 997.45 996.23 995.18 994.34 993.78 993.51 993.53 993.85 994.42 995.18 996.08 997.06 998.06 999.03 999.94 1000.78 1001.53 1002.20 1002.82 1003.40 1003.95 1004.50 1005.05 1005.61 1006.17 1006.74 1007.30 1007.85 1008.39 1008.93 1009.47 1010.02 1010.58 1011.16 1011.77 1012.38 1012.99 1013.59 1014.14
1003.80 1002.78 1001.63 1000.39 999.09 997.82 996.61 995.54 994.67 994.04 993.69 993.62 993.82 994.28 994.93 995.73 996.63 997.57 998.51 999.41 1000.24 1001.01 1001.70 1002.34 1002.94 1003.50 1004.04 1004.57 1005.10 1005.62 1006.15 1006.66 1007.17 1007.68 1008.18 1008.69 1009.22 1009.77 1010.34 1010.92 1011.52 1012.12 1012.69 1013.21
1003.97 1003.07 1002.03 1000.90 999.71 998.51 997.35 996.30 995.41 994.73 994.28 994.08 994.14 994.43 994.91 995.55 996.30 997.11 997.95 998.78 999.58 1000.34 1001.05 1001.71 1002.33 1002.92 1003.49 1004.04 1004.57 1005.09 1005.59 1006.08 1006.55 1007.02 1007.49 1007.97 1008.46 1008.98 1009.52 1010.07 1010.64 1011.21 1011.75 1012.26
1004.20 1003.43 1002.53 1001.54 1000.47 999.37 998.30 997.29 996.41 995.68 995.15 994.82 994.71 994.81 995.09 995.52 996.08 996.72 997.42 998.15 998.89 999.61 1000.32 1001.01 1001.68 1002.32 1002.93 1003.52 1004.08 1004.60 1005.10 1005.57 1006.02 1006.45 1006.88 1007.31 1007.75 1008.22 1008.71 1009.23 1009.75 1010.29 1010.80 1011.28
1004.43 1003.78 1003.02 1002.17 1001.24 1000.27 999.29 998.36 997.50 996.76 996.15 995.71 995.45 995.35 995.43 995.65 996.00 996.45 997.00 997.61 998.26 998.95 999.65 1000.36 1001.06 1001.75 1002.42 1003.06 1003.65 1004.20 1004.70 1005.16 1005.58 1005.97 1006.34 1006.71 1007.09 1007.50 1007.93 1008.39 1008.87 1009.36 1009.84 1010.31
1004.61 1004.07 1003.44 1002.72 1001.93 1001.09 1000.23 999.38 998.58 997.84 997.20 996.67 996.28 996.03 995.92 995.94 996.10 996.37 996.76 997.24 997.80 998.44 999.12 999.83 1000.56 1001.30 1002.01 1002.68 1003.30 1003.87 1004.37 1004.81 1005.19 1005.53 1005.85 1006.15 1006.46 1006.80 1007.16 1007.56 1007.99 1008.44 1008.90 1009.34
1004.71 1004.26 1003.74 1003.14 1002.48 1001.77 1001.03 1000.29 999.55 998.86 998.21 997.64 997.17 996.80 996.54 996.40 996.39 996.51 996.75 997.11 997.58 998.14 998.78 999.48 1000.21 1000.96 1001.68 1002.37 1003.00 1003.57 1004.05 1004.46 1004.80 1005.09 1005.34 1005.58 1005.83 1006.10 1006.40 1006.74 1007.13 1007.54 1007.98 1008.41
1004.76 1004.37 1003.92 1003.42 1002.88 1002.29 1001.67 1001.03 1000.39 999.76 999.15 998.58 998.07 997.63 997.27 997.02 996.89 996.87 996.99 997.23 997.60 998.08 998.65 999.30 999.99 1000.71 1001.41 1002.08 1002.69 1003.22 1003.67 1004.04 1004.34 1004.57 1004.77 1004.96 1005.15 1005.37 1005.63 1005.93 1006.28 1006.67 1007.09 1007.52
1004.76 1004.41 1004.02 1003.60 1003.14 1002.66 1002.15 1001.62 1001.08 1000.53 999.98 999.44 998.94 998.48 998.08 997.76 997.53 997.42 997.42 997.56 997.82 998.20 998.67 999.23 999.85 1000.49 1001.13 1001.73 1002.28 1002.76 1003.16 1003.48 1003.73 1003.93 1004.09 1004.24 1004.40 1004.59 1004.83 1005.12 1005.46 1005.85 1006.26 1006.69
1004.74 1004.41 1004.06 1003.69 1003.30 1002.90 1002.49 1002.06 1001.62 1001.16 1000.69 1000.22 999.76 999.31 998.91 998.55 998.28 998.09 998.00 998.03 998.18 998.43 998.79 999.23 999.72 1000.25 1000.77 1001.28 1001.74 1002.14 1002.47 1002.74 1002.95 1003.12 1003.26 1003.40 1003.56 1003.76 1004.01 1004.32 1004.67 1005.07 1005.49 1005.93
Thickness
5705 5710 5710 5707 5707 5708 5705 5706 5699 5702 5703 5705 5707 5707 5708 5708 5707 5706 5704 5701 5698 5695 5692 5691 5689 5688 5686 5685 5684 5682 5680 5678 5676 5675 5674 5673 5672 5670 5670 5669 5668 5666 5665 5663
5690 5699 5700 5697 5700 5701 5700 5700 5698 5699 5696 5702 5703 5703 5700 5699 5697 5696 5696 5695 5693 5689 5686 5685 5683 5681 5680 5679 5678 5676 5674 5673 5671 5670 5668 5667 5666 5665 5664 5663 5662 5661 5659 5658
5679 5689 5687 5681 5689 5691 5691 5691 5689 5685 5688 5693 5692 5692 5691 5691 5690 5690 5689 5689 5686 5683 5681 5679 5678 5677 5675 5674 5673 5671 5669 5668 5666 5664 5663 5661 5661 5659 5658 5656 5656 5655 5654 5653
5672 5671 5659 5674 5686 5685 5681 5679 5680 5680 5681 5683 5683 5685 5686 5686 5685 5682 5682 5681 5680 5679 5676 5675 5674 5673 5671 5670 5668 5666 5664 5662 5661 5659 5658 5656 5655 5653 5652 5651 5650 5649 5649 5649
5663 5661 5664 5666 5671 5670 5667 5665 5670 5670 5671 5674 5677 5679 5678 5678 5676 5675 5675 5674 5673 5673 5672 5670 5669 5667 5666 5664 5662 5660 5658 5656 5655 5654 5652 5651 5649 5648 5647 5646 5646 5645 5645 5644
5654 5649 5649 5653 5664 5669 5664 5655 5661 5661 5661 5664 5667 5666 5667 5668 5667 5668 5667 5667 5667 5668 5667 5664 5662 5661 5659 5658 5656 5654 5653 5652 5650 5648 5647 5645 5644 5643 5642 5642 5642 5642 5641 5640
5643 5643 5643 5648 5657 5660 5643 5641 5650 5652 5652 5653 5654 5654 5657 5660 5660 5659 5660 5661 5662 5661 5660 5658 5657 5655 5653 5652 5650 5649 5648 5646 5644 5643 5641 5640 5638 5638 5637 5637 5637 5637 5636 5636
5634 5630 5629 5638 5642 5635 5631 5638 5641 5642 5643 5643 5644 5646 5649 5651 5651 5651 5652 5653 5654 5654 5653 5652 5651 5649 5647 5646 5645 5644 5642 5640 5638 5637 5636 5635 5633 5632 5632 5631 5631 5631 5632 5631
5620 5619 5621 5626 5626 5626 5628 5629 5631 5633 5635 5635 5637 5639 5642 5643 5644 5644 5645 5645 5646 5647 5646 5646 5645 5644 5642 5640 5639 5637 5635 5633 5632 5631 5630 5630 5628 5627 5628 5628 5628 5629 5629 5628
5609 5614 5615 5617 5619 5619 5620 5622 5624 5626 5627 5628 5629 5632 5634 5636 5637 5638 5638 5639 5639 5640 5639 5638 5638 5638 5637 5635 5633 5631 5629 5628 5627 5626 5626 5625 5625 5626 5626 5625 5624 5624 5624 5624
5598 5602 5606 5608 5610 5610 5612 5615 5617 5618 5620 5621 5623 5624 5626 5627 5629 5631 5632 5632 5633 5633 5633 5632 5631 5631 5630 5629 5627 5625 5623 5623 5622 5622 5622 5621 5621 5621 5621 5621 5620 5617 5618 5618
5590 5594 5595 5597 5602 5605 5606 5608 5610 5611 5613 5615 5616 5616 5618 5620 5622 5623 5624 5625 5625 5626 5626 5626 5626 5624 5624 5623 5621 5619 5618 5618 5619 5619 5619 5618 5618 5617 5614 5613 5611 5609 5608 5609
5587 5590 5591 5592 5596 5599 5601 5603 5605 5606 5606 5608 5609 5610 5611 5612 5615 5616 5617 5617 5618 5619 5619 5619 5619 5617 5617 5616 5615 5614 5614 5614 5614 5614 5615 5615 5615 5614 5613 5609 5606 5605 5604 5603
5583 5584 5584 5587 5589 5593 5595 5597 5599 5600 5600 5600 5601 5602 5603 5604 5606 5608 5610 5611 5612 5612 5613 5613 5612 5611 5610 5610 5609 5608 5609 5608 5608 5609 5610 5611 5611 5610 5610 5609 5609 5609 5604 5600
5579 5580 5581 5583 5585 5587 5588 5590 5591 5592 5593 5593 5593 5593 5594 5595 5597 5599 5602 5604 5604 5605 5606 5606 5605 5605 5604 5604 5603 5603 5604 5605 5604 5605 5606 5606 5606 5606 5606 5606 5606 5607 5606 5602
5574 5577 5578 5579 5579 5581 5583 5584 5584 5585 5586 5585 5585 5586 5587 5588 5589 5592 5595 5596 5596 5597 5597 5598 5598 5599 5598 5598 5597 5598 5599 5597 5596 5599 5600 5601 5601 5601 5601 5601 5601 5602 5602 5601
5568 5570 5571 5572 5575 5576 5578 5578 5579 5579 5579 5579 5579 5580 5581 5582 5583 5585 5587 5589 5590 5590 5591 5591 5591 5592 5592 5592 5592 5594 5594 5593 5589 5592 5595 5596 5596 5596 5596 5596 5597 5597 5598 5597
5566 5567 5568 5568 5570 5571 5573 5574 5575 5575 5575 5575 5575 5575 5575 5576 5577 5579 5580 5582 5583 5584 5585 5585 5585 5585 5586 5586 5586 5587 5588 5589 5588 5588 5589 5589 5590 5591 5591 5592 5593 5593 5593 5593
5563 5564 5565 5566 5567 5568 5569 5570 5571 5572 5572 5571 5570 5570 5570 5570 5571 5573 5574 5575 5577 5578 5579 5580 5576 5579 5580 5580 5578 5580 5583 5584 5583 5584 5584 5582 5583 5586 5587 5588 5589 5589 5590 5590
5560 5562 5562 5563 5565 5565 5565 5566 5567 5567 5567 5567 5566 5565 5565 5566 5567 5567 5569 5571 5572 5573 5574 5573 5573 5574 5575 5574 5572 5576 5578 5578 5578 5578 5578 5579 5580 5581 5582 5583 5585 5586 5586 5586
5556 5557 5558 5559 5559 5560 5560 5561 5562 5562 5562 5562 5561 5561 5561 5561 5562 5562 5563 5565 5565 5565 5565 5565 5567 5569 5569 5568 5566 5572 5573 5573 5573 5573 5573 5575 5576 5577 5578 5579 5580 5581 5582 5583
5551 5552 5552 5554 5554 5554 5555 5555 5556 5557 5556 5556 5556 5557 5556 5556 5557 5557 5557 5558 5558 5555 5558 5562 5563 5560 5560 5560 5565 5567 5568 5568 5569 5569 5569 5570 5571 5572 5573 5574 5575 5576 5578 5579
5546 5547 5547 5548 5548 5548 5549 5549 5550 5550 5550 5550 5551 5551 5551 5551 5552 5552 5552 5553 5552 5549 5552 5555 5552 5551 5550 5557 5561 5563 5563 5563 5564 5565 5566 5566 5566 5567 5569 5569 5570 5572 5573 5574
5541 5542 5542 5543 5543 5543 5543 5544 5544 5544 5545 5545 5546 5546 5545 5546 5546 5547 5547 5544 5544 5543 5548 5547 5544 5544 5545 5554 5556 5557 5558 5558 5559 5560 5561 5562 5563 5563 5564 5564 5565 5567 5568 5569
5537 5537 5538 5538 5538 5539 5538 5538 5539 5539 5540 5540 5540 5540 5541 5541 5541 5542 5541 5541 5539 5539 5543 5542 5539 5540 5545 5550 5551 5552 5553 5553 5554 5555 5556 5557 5558 5558 5559 5560 5561 5563 5564 5565
5532 5533 5533 5533 5533 5533 5534 5534 5534 5534 5534 5535 5535 5535 5536 5536 5536 5537 5537 5538 5538 5536 5539 5540 5540 5539 5544 5546 5547 5547 5547 5547 5548 5549 5551 5551 5552 5553 5553 5554 5555 5557 5558 5558
5529 5529 5528 5529 5529 5529 5529 5529 5529 5529 5529 5528 5528 5529 5530 5531 5532 5532 5533 5534 5534 5535 5536 5537 5538 5539 5540 5542 5541 5541 5542 5542 5543 5543 5544 5545 5545 5546 5547 5547 5549 5550 5551 5552